Regional Weather Roundup
Issued by NWS

Home | Current Version | Previous Version | Text Only | Print | Product List | Glossary On
Versions: 1 2 3 4 5 6 7 8 9 10 11 12 13 14 15 16 17 18 19 20 21 22 23 24 25 26 27 28 29 30 31 32 33 34 35 36 37 38 39 40 41 42 43 44 45 46 47 48 49 50
000
ASUS43 KLMK 261002
RWRKY
KENTUCKY REGIONAL WEATHER ROUNDUP
NATIONAL WEATHER SERVICE LOUISVILLE KY
500 AM EST FRI DEC 26 2014

NOTE "FAIR" INDICATES FEW OR NO CLOUDS BELOW 12,000 FEET
WITH NO SIGNIFICANT WEATHER AND/OR OBSTRUCTIONS TO VISIBILITY.

KYZ001>023-026-027-061>063-070>075-261100-
WESTERN AND SOUTH CENTRAL KENTUCKY

CITY           SKY/WX    TMP DP  RH WIND       PRES   REMARKS
PADUCAH        CLEAR     40  34  79 S6        30.17S
HENDERSON      CLEAR     36  30  80 S6        30.19S WCI  31
OWENSBORO      CLEAR     37  34  89 S8        30.21F WCI  31
HOPKINSVILLE   PTCLDY    32  30  94 E3        30.22S
BOWLING GREEN  CLEAR     28  26  92 CALM      30.25R FOG
GLASGOW        NOT AVBL
$$

KYZ024-025-028>034-038-045-046-053-261100-
NORTH CENTRAL KENTUCKY

CITY           SKY/WX    TMP DP  RH WIND       PRES   REMARKS
LOUISVILLE/SDF CLEAR     35  31  85 SE6       30.23R WCI  30
LOUISVILLE/LOU CLEAR     34  31  88 S5        30.23R WCI  30
FORT KNOX      CLEAR     31  29  94 S2        30.21F
$$

KYZ035>037-039>044-047>052-055>060-089>105-261100-
NORTHEAST KENTUCKY

CITY           SKY/WX    TMP DP  RH WIND       PRES   REMARKS
LEXINGTON      CLEAR     32  29  88 S7        30.24R WCI  26
COVINGTON      CLEAR     31  26  82 S6        30.21S WCI  25
FRANKFORT      CLEAR     30  27  88 S3        30.23R
$$

KYZ054-064>069-076>088-106>120-261100-
SOUTHEAST KENTUCKY

CITY           SKY/WX    TMP DP  RH WIND       PRES   REMARKS
JACKSON        CLEAR     31  27  85 SW5       30.23R WCI  26
LONDON         PTCLDY    28  23  81 CALM      30.24F
SOMERSET       NOT AVBL
MIDDLESBORO    PTCLDY    27  26  98 CALM      30.29R
MONTICELLO     SUNNY     27  26  96 CALM      30.27S
$$



USA.gov is the U.S. government's official web portal to all federal, state and local government web resources and services.